Location: Washington
(38.8950°N, 77.0367°W)
Time: 23:38:43
(UTC-04:00)

N. Korean satellite - Visible Passes

Search period start: 01 May 2016 00:00
Search period end: 11 May 2016 00:00
Orbit: 466 x 525 km, 97.3° (Epoch: 01 May)

Date Brightness Start Highest point End Pass type
(mag) Time Alt. Az. Time Alt. Az. Time Alt. Az.
02 May 9.7 20:57:55 10° SW 21:00:05 15° W 21:02:16 10° WNW visible
03 May 9.0 20:35:48 10° SSW 20:38:59 26° W 20:42:12 10° NW visible
06 May 10.0 21:08:56 10° WSW 21:09:54 11° W 21:10:51 10° WNW visible
07 May 9.5 20:45:57 10° SW 20:48:44 19° W 20:51:30 10° NW visible
